Location: Blue Pit
(43.1414°N, 93.2208°W)
Time: 02:14:07
(UTC+00:00)

YAOGAN 1 - Pass Details

Date: 18 November 2025
Orbit: 605 x 607 km, 97.8° (Epoch: 08 December)

Event Time Altitude Azimuth Distance (km) Brightness Sun altitude
Rises 23:10:04 0° 111° (ESE) 2,859 5.5 -4.8°
Reaches altitude 10° 23:14:01 10° 74° (ENE) 1,961 4.5 -5.5°
Maximum altitude 23:14:59 11° 60° (ENE) 1,917 4.4 -5.7°
Drops below altitude 10° 23:15:57 10° 47° (NE) 1,964 4.6 -5.8°
Sets 23:19:55 0° 10° (N) 2,874 5.7 -6.5°
